EW6643 Weather Reports


Display with metric or nautical units.
time (UTC)temp
F
wind
direction
speed
MPH
gust
MPH
rain 1hr
in
rain 24hr
in
rain mn
in
humidity
%
barometer
mb
20191014133825 43 141 1.0 4.0 0.00 0.00 0.00 78 1016.5
20191014133317 43 120 1.0 4.0 0.00 0.00 0.00 78 1016.4
20191014132832 42 131 1.0 3.0 0.00 0.00 0.00 79 1016.5
20191014132328 42 128 1.0 4.0 0.00 0.00 0.00 79 1016.6
20191014131825 42 121 1.0 5.0 0.00 0.00 0.00 79 1016.6
20191014131321 42 134 2.0 4.0 0.00 0.00 0.00 79 1016.8
20191014130817 41 125 1.0 3.0 0.00 0.00 0.00 79 1016.7
20191014130332 41 135 0.0 3.0 0.00 0.00 0.00 79 1016.7
20191014125827 41 133 1.0 3.0 0.00 0.00 0.00 79 1016.6
20191014125322 41 151 1.0 3.0 0.00 0.00 0.00 79 1016.5
20191014124817 41 162 1.0 3.0 0.00 0.00 0.00 80 1016.5
20191014124316 40 118 0.0 3.0 0.00 0.00 0.00 80 1016.4
20191014123832 40 120 1.0 3.0 0.00 0.00 0.00 80 1016.4
20191014123324 40 124 1.0 2.0 0.00 0.00 0.00 80 1016.3
20191014122819 39 121 0.0 1.0 0.00 0.00 0.00 80 1016.2
20191014122314 39 148 0.0 2.0 0.00 0.00 0.00 80 1016.3
20191014121831 38 120 0.0 2.0 0.00 0.00 0.00 81 1016.3
20191014121325 37 138 0.0 0.0 0.00 0.00 0.00 82 1016.2
20191014120819 36 144 0.0 1.0 0.00 0.00 0.00 82 1016.3
20191014120319 37 144 0.0 1.0 0.00 0.00 0.00 81 1016.4
20191014115815 38 144 0.0 0.0 0.00 0.00 0.00 81 1016.2
20191014115331 37 144 0.0 0.0 0.00 0.00 0.00 81 1016.1
20191014114826 37 144 0.0 0.0 0.00 0.00 0.00 81 1016.1
20191014114321 37 144 0.0 0.0 0.00 0.00 0.00 82 1016.1
20191014113836 36 144 0.0 0.0 0.00 0.00 0.00 82 1016.0
20191014113320 35 144 0.0 0.0 0.00 0.00 0.00 83 1015.9
20191014112819 34 144 0.0 0.0 0.00 0.00 0.00 83 1016.1
20191014112314 33 144 0.0 0.0 0.00 0.00 0.00 84 1016.2
20191014111829 34 144 0.0 0.0 0.00 0.00 0.00 84 1016.2
20191014111325 34 144 0.0 0.0 0.00 0.00 0.00 84 1016.1
20191014110821 34 144 0.0 0.0 0.00 0.00 0.00 84 1016.1
20191014110315 34 144 0.0 0.0 0.00 0.00 0.00 84 1016.2
20191014105830 34 144 0.0 0.0 0.00 0.00 0.00 84 1016.1
20191014105321 33 144 0.0 0.0 0.00 0.00 0.00 85 1016.1
20191014104819 32 144 0.0 0.0 0.00 0.00 0.00 86 1016.1
20191014104315 32 144 0.0 0.0 0.00 0.00 0.00 87 1016.1
20191014103829 32 144 0.0 0.0 0.00 0.00 0.00 88 1016.0
20191014103324 33 144 0.0 0.0 0.00 0.00 0.00 88 1016.0
20191014102820 34 144 0.0 0.0 0.00 0.00 0.00 87 1016.0
20191014102316 35 144 0.0 0.0 0.00 0.00 0.00 85 1015.9
20191014101831 35 144 0.0 0.0 0.00 0.00 0.00 85 1015.8
20191014101331 35 144 0.0 0.0 0.00 0.00 0.00 85 1015.8
20191014100826 35 144 0.0 0.0 0.00 0.00 0.00 85 1015.7
20191014100321 35 144 0.0 0.0 0.00 0.00 0.00 86 1015.8
20191014095816 36 144 0.0 0.0 0.00 0.00 0.00 85 1015.9
20191014095331 36 144 0.0 0.0 0.00 0.00 0.00 86 1015.9
20191014094827 36 144 0.0 0.0 0.00 0.00 0.00 86 1015.9
20191014094323 36 144 0.0 0.0 0.00 0.00 0.00 86 1015.9
20191014093823 36 144 0.0 1.0 0.00 0.00 0.00 87 1015.9
20191014093319 37 144 0.0 1.0 0.00 0.00 0.00 87 1015.9
20191014092814 37 131 0.0 1.0 0.00 0.00 0.00 87 1015.9
20191014092330 37 356 0.0 0.0 0.00 0.00 0.00 87 1015.9
20191014091826 38 356 0.0 0.0 0.00 0.00 0.00 87 1015.9
20191014091322 38 356 0.0 0.0 0.00 0.00 0.00 87 1015.9
20191014090818 39 356 0.0 0.0 0.00 0.00 0.00 87 1016.0
20191014090317 39 356 0.0 0.0 0.00 0.00 0.00 87 1016.1
20191014085832 40 356 0.0 0.0 0.00 0.00 0.00 87 1016.1
20191014085327 40 356 0.0 0.0 0.00 0.00 0.00 86 1016.0
20191014084822 41 356 0.0 0.0 0.00 0.00 0.00 85 1016.0
20191014084317 41 356 0.0 0.0 0.00 0.00 0.00 83 1016.1
20191014083814 41 356 0.0 0.0 0.00 0.00 0.00 83 1016.1
20191014083330 40 356 0.0 0.0 0.00 0.00 0.00 84 1016.2
20191014082825 40 356 0.0 0.0 0.00 0.00 0.00 85 1016.2
20191014082324 40 356 0.0 0.0 0.00 0.00 0.00 86 1016.1
20191014081820 40 356 0.0 0.0 0.00 0.00 0.00 87 1016.1
20191014081316 40 356 0.0 0.0 0.00 0.00 0.00 88 1016.1
20191014080832 40 356 0.0 0.0 0.00 0.00 0.00 88 1016.1
20191014080328 41 356 0.0 0.0 0.00 0.00 0.00 88 1016.1
20191014075823 41 356 0.0 0.0 0.00 0.00 0.00 88 1016.0
20191014075318 41 356 0.0 0.0 0.00 0.00 0.00 88 1015.8
20191014074817 41 356 0.0 0.0 0.00 0.00 0.00 88 1015.8
20191014074332 42 356 0.0 0.0 0.00 0.00 0.00 86 1015.9
20191014073827 42 356 0.0 0.0 0.00 0.00 0.00 83 1015.9
20191014073323 41 356 0.0 0.0 0.00 0.00 0.00 85 1015.8
20191014072819 41 356 0.0 0.0 0.00 0.00 0.00 84 1015.8
20191014072315 40 356 0.0 0.0 0.00 0.00 0.00 85 1015.9
20191014071830 40 356 0.0 0.0 0.00 0.00 0.00 86 1015.9
20191014071330 40 356 0.0 0.0 0.00 0.00 0.00 86 1015.8
20191014070825 40 356 0.0 0.0 0.00 0.00 0.00 87 1015.7
20191014070320 40 356 0.0 0.0 0.00 0.00 0.00 86 1015.8
20191014065816 41 356 0.0 0.0 0.00 0.00 0.00 85 1015.7
20191014065330 40 356 0.0 0.0 0.00 0.00 0.00 86 1015.8
20191014064826 41 356 0.0 0.0 0.00 0.00 0.00 85 1015.8
20191014064321 40 356 0.0 0.0 0.00 0.00 0.00 86 1015.8
20191014063821 40 356 0.0 0.0 0.00 0.00 0.00 85 1015.8
20191014063316 40 356 0.0 0.0 0.00 0.00 0.00 87 1015.7
20191014062831 39 356 0.0 0.0 0.00 0.00 0.00 88 1015.7
20191014062327 39 356 0.0 1.0 0.00 0.00 0.00 88 1015.9
20191014061823 40 356 0.0 1.0 0.00 0.00 0.00 88 1015.8
20191014061339 39 356 0.0 0.0 0.00 0.00 0.00 89 1015.8
20191014060823 40 356 0.0 0.0 0.00 0.00 0.00 89 1015.8
20191014060319 41 356 0.0 0.0 0.00 0.00 0.00 88 1015.8
20191014055818 41 356 0.0 0.0 0.00 0.00 0.00 89 1015.9
20191014055313 41 356 0.0 0.0 0.00 0.00 0.00 90 1015.9
20191014054829 41 356 0.0 0.0 0.00 0.00 0.00 90 1016.0
20191014054324 41 356 0.0 0.0 0.00 0.00 0.00 90 1016.1
20191014053819 42 356 0.0 0.0 0.00 0.00 0.00 90 1016.0
20191014053316 42 356 0.0 0.0 0.00 0.00 0.00 90 1016.0
20191014052832 42 356 0.0 0.0 0.00 0.00 0.00 90 1016.1
20191014052331 43 356 0.0 0.0 0.00 0.00 0.00 89 1016.0
20191014051827 44 356 0.0 0.0 0.00 0.00 0.00 87 1016.1
20191014051323 45 356 0.0 0.0 0.00 0.00 0.00 86 1016.0
20191014050819 45 356 0.0 0.0 0.00 0.00 0.00 86 1016.1
20191014050314 45 356 0.0 0.0 0.00 0.00 0.00 86 1016.0
20191014045829 45 356 0.0 0.0 0.00 0.00 0.00 86 1016.0
20191014045325 45 356 0.0 0.0 0.00 0.00 0.00 85 1015.9
20191014044825 46 356 0.0 0.0 0.00 0.00 0.00 84 1015.9
20191014044320 46 356 0.0 0.0 0.00 0.00 0.00 84 1015.8
20191014043815 46 356 0.0 0.0 0.00 0.00 0.00 84 1015.8
20191014043331 46 356 0.0 0.0 0.00 0.00 0.00 85 1015.8
20191014042826 46 356 0.0 0.0 0.00 0.00 0.00 86 1015.8
20191014042322 45 356 0.0 0.0 0.00 0.00 0.00 87 1015.8
20191014041838 46 356 0.0 0.0 0.00 0.00 0.00 86 1015.8
20191014041322 46 356 0.0 0.0 0.00 0.00 0.00 86 1015.8
20191014040821 46 356 0.0 0.0 0.00 0.00 0.00 86 1015.8
20191014040317 46 356 0.0 1.0 0.00 0.00 0.00 86 1015.8
20191014035831 46 356 0.0 1.0 0.00 0.00 0.00 86 1015.8
20191014035326 46 356 0.0 1.0 0.00 0.00 0.00 87 1015.7
20191014034820 45 356 0.0 0.0 0.00 0.00 0.00 87 1015.8
20191014034314 45 356 0.0 0.0 0.00 0.00 0.00 86 1015.8
20191014033829 46 356 0.0 0.0 0.00 0.00 0.00 86 1015.8
20191014033329 46 356 0.0 0.0 0.00 0.00 0.00 85 1015.8
20191014032825 46 356 0.0 0.0 0.00 0.00 0.00 85 1015.6
20191014032321 46 356 0.0 0.0 0.00 0.00 0.00 85 1015.6
20191014031817 46 356 0.0 0.0 0.00 0.00 0.00 85 1015.7
20191014031332 47 356 0.0 0.0 0.00 0.00 0.00 84 1015.7
20191014030827 47 356 0.0 0.0 0.00 0.00 0.00 84 1015.7
20191014030323 47 356 0.0 0.0 0.00 0.00 0.00 84 1015.7
20191014025823 47 356 0.0 0.0 0.00 0.00 0.00 84 1015.8
20191014025318 47 356 0.0 0.0 0.00 0.00 0.00 83 1015.7
20191014024813 48 356 0.0 0.0 0.00 0.00 0.00 84 1015.8
20191014024329 48 356 0.0 0.0 0.00 0.00 0.00 84 1015.8
20191014023824 47 356 0.0 1.0 0.00 0.00 0.00 86 1015.9
20191014023320 47 356 0.0 1.0 0.00 0.00 0.00 87 1015.9
20191014022816 47 356 0.0 0.0 0.00 0.00 0.00 86 1015.8
20191014022316 47 356 0.0 0.0 0.00 0.00 0.00 85 1015.8
20191014021831 47 356 0.0 0.0 0.00 0.00 0.00 85 1015.8
20191014021324 48 356 0.0 0.0 0.00 0.00 0.00 85 1015.8
20191014020819 48 356 0.0 0.0 0.00 0.00 0.00 84 1015.8
20191014020328 48 356 0.0 0.0 0.00 0.00 0.00 83 1015.8
20191014015823 49 356 0.0 0.0 0.00 0.00 0.00 83 1015.8
20191014015318 49 356 0.0 0.0 0.00 0.00 0.00 83 1015.7
20191014014814 49 356 0.0 0.0 0.00 0.00 0.00 84 1015.4
20191014014313 49 356 0.0 0.0 0.00 0.00 0.00 84 1015.5
20191014013827 49 356 0.0 0.0 0.00 0.00 0.00 83 1015.4
20191014013323 50 356 0.0 0.0 0.00 0.00 0.00 83 1015.4
20191014012819 50 356 0.0 1.0 0.00 0.00 0.00 82 1015.4
20191014012314 50 356 0.0 1.0 0.00 0.00 0.00 82 1015.3
20191014011830 50 356 0.0 1.0 0.00 0.00 0.00 82 1015.4
20191014011326 51 319 0.0 2.0 0.00 0.00 0.00 81 1015.4
20191014010826 51 9 1.0 4.0 0.00 0.00 0.00 81 1015.3
20191014010321 51 20 0.0 3.0 0.00 0.00 0.00 81 1015.2
20191014005817 50 330 0.0 3.0 0.00 0.00 0.00 82 1015.3
20191014005332 50 264 0.0 0.0 0.00 0.00 0.00 82 1015.3
20191014004827 50 264 0.0 1.0 0.00 0.00 0.00 82 1015.2
20191014004322 51 264 0.0 1.0 0.00 0.00 0.00 82 1015.4
20191014003817 51 264 0.0 1.0 0.00 0.00 0.00 80 1015.4
20191014003317 52 264 0.0 1.0 0.00 0.00 0.00 80 1015.3
20191014002832 52 314 0.0 1.0 0.00 0.00 0.00 79 1015.4
20191014002328 52 281 0.0 1.0 0.00 0.00 0.00 79 1015.4
20191014001823 52 270 0.0 1.0 0.00 0.00 0.00 79 1015.3
20191014001319 52 283 0.0 2.0 0.00 0.00 0.00 79 1015.2
20191014000815 53 262 0.0 2.0 0.00 0.00 0.00 79 1015.2
20191014000331 53 264 0.0 1.0 0.00 0.00 0.00 80 1015.2
20191013235827 53 276 0.0 1.0 0.00 0.00 0.00 80 1015.1
20191013235326 53 276 0.0 1.0 0.00 0.00 0.00 80 1015.2
20191013234821 53 224 0.0 1.0 0.00 0.00 0.00 79 1015.2
20191013234316 53 262 0.0 1.0 0.00 0.00 0.00 80 1015.2
20191013233831 53 266 0.0 1.0 0.00 0.00 0.00 81 1015.2
20191013233327 53 256 0.0 1.0 0.00 0.00 0.00 84 1015.1
20191013232822 53 302 0.0 0.0 0.00 0.00 0.00 85 1014.9
20191013232317 53 302 0.0 0.0 0.00 0.00 0.00 84 1015.0
20191013231816 53 302 0.0 1.0 0.00 0.00 0.00 84 1014.9
20191013231332 54 302 0.0 1.0 0.00 0.00 0.00 83 1014.9
20191013230828 54 302 0.0 2.0 0.00 0.00 0.00 83 1015.0
20191013230323 55 276 0.0 2.0 0.00 0.00 0.00 83 1014.9
20191013225819 55 357 0.0 3.0 0.00 0.00 0.00 82 1014.9
20191013225313 55 246 0.0 3.0 0.00 0.00 0.00 82 1014.9
20191013224829 55 284 0.0 2.0 0.00 0.00 0.00 83 1014.9
20191013224328 55 290 0.0 1.0 0.00 0.00 0.00 83 1014.8
20191013223824 56 269 0.0 1.0 0.00 0.00 0.00 83 1014.8
20191013223320 56 221 0.0 0.0 0.00 0.00 0.00 82 1014.7
20191013222816 56 221 0.0 1.0 0.00 0.00 0.00 81 1014.6
20191013222332 56 221 0.0 1.0 0.00 0.00 0.00 81 1014.6
20191013221828 56 221 0.0 1.0 0.00 0.00 0.00 81 1014.6
20191013221323 56 215 0.0 1.0 0.00 0.00 0.00 80 1014.6
20191013220823 56 252 0.0 1.0 0.00 0.00 0.00 80 1014.5
20191013220318 57 299 0.0 0.0 0.00 0.00 0.00 79 1014.4
20191013215832 57 299 0.0 0.0 0.00 0.00 0.00 78 1014.4
20191013215327 58 299 0.0 0.0 0.00 0.00 0.00 77 1014.4
20191013214831 58 299 0.0 0.0 0.00 0.00 0.00 75 1014.3
20191013214325 59 299 0.0 0.0 0.00 0.00 0.00 75 1014.3
20191013213819 59 299 0.0 0.0 0.00 0.00 0.00 75 1014.3
20191013213315 59 299 0.0 0.0 0.00 0.00 0.00 75 1014.2
20191013212814 59 299 0.0 0.0 0.00 0.00 0.00 74 1014.1
20191013212330 60 299 0.0 1.0 0.00 0.00 0.00 73 1014.1
20191013211826 60 299 0.0 1.0 0.00 0.00 0.00 73 1014.1
20191013211322 60 299 0.0 2.0 0.00 0.00 0.00 73 1014.1
20191013210817 60 297 0.0 2.0 0.00 0.00 0.00 74 1014.0
20191013210313 60 248 0.0 3.0 0.00 0.00 0.00 74 1014.0
20191013205829 60 325 2.0 3.0 0.00 0.00 0.00 74 1014.1
20191013205330 60 288 0.0 1.0 0.00 0.00 0.00 75 1014.0
20191013204825 60 305 0.0 3.0 0.00 0.00 0.00 75 1014.0
20191013204320 60 321 1.0 3.0 0.00 0.00 0.00 74 1014.1
20191013203815 60 316 2.0 3.0 0.00 0.00 0.00 73 1014.1
20191013203331 60 293 1.0 3.0 0.00 0.00 0.00 74 1014.1
20191013202827 60 330 1.0 4.0 0.00 0.00 0.00 74 1014.1
20191013202323 60 306 2.0 4.0 0.00 0.00 0.00 74 1014.1
20191013201822 60 302 2.0 4.0 0.00 0.00 0.00 75 1014.1
20191013201317 60 330 1.0 5.0 0.00 0.00 0.00 76 1014.1
20191013200832 59 26 3.0 5.0 0.00 0.00 0.00 76 1014.0
20191013200327 59 327 2.0 5.0 0.00 0.00 0.00 78 1014.0
20191013195822 59 337 1.0 6.0 0.00 0.00 0.00 79 1014.1
20191013195317 59 321 3.0 7.0 0.00 0.00 0.00 79 1014.1
20191013194832 59 293 3.0 7.0 0.00 0.00 0.00 80 1014.1
20191013194328 59 309 3.0 7.0 0.00 0.00 0.00 80 1014.1
20191013193828 59 323 4.0 7.0 0.00 0.00 0.00 80 1014.1
20191013193323 59 319 3.0 6.0 0.00 0.00 0.00 81 1014.0
20191013192820 59 299 4.0 7.0 0.00 0.00 0.00 80 1014.1
20191013192315 59 295 3.0 7.0 0.00 0.00 0.00 80 1014.1
20191013191830 59 313 5.0 8.0 0.00 0.00 0.00 80 1014.2
20191013191325 59 325 4.0 8.0 0.00 0.00 0.00 79 1014.2
20191013190820 59 321 2.0 5.0 0.00 0.00 0.00 78 1014.2
20191013190320 59 322 2.0 5.0 0.00 0.00 0.00 78 1014.2
20191013185816 59 359 2.0 7.0 0.00 0.00 0.00 77 1014.2
20191013185331 59 331 4.0 7.0 0.00 0.00 0.00 77 1014.1
20191013184826 59 329 3.0 6.0 0.00 0.00 0.00 77 1014.1
20191013184322 60 333 1.0 5.0 0.00 0.00 0.00 77 1014.1
20191013183817 60 349 2.0 4.0 0.00 0.00 0.00 77 1014.0
20191013183332 60 303 2.0 5.0 0.00 0.00 0.00 77 1014.1
20191013182831 60 316 3.0 5.0 0.00 0.00 0.00 77 1014.0
20191013182326 60 323 1.0 3.0 0.00 0.00 0.00 76 1014.1
20191013181822 60 17 1.0 4.0 0.00 0.00 0.00 77 1014.1
20191013181318 60 319 1.0 4.0 0.00 0.00 0.00 77 1014.1
20191013180833 60 342 2.0 4.0 0.00 0.00 0.00 76 1014.0
20191013180329 60 304 1.0 4.0 0.00 0.00 0.00 75 1014.0
20191013175824 60 326 2.0 5.0 0.00 0.00 0.00 75 1014.1
20191013175323 60 314 2.0 5.0 0.00 0.00 0.00 76 1014.1
20191013174818 60 303 1.0 6.0 0.00 0.00 0.00 75 1014.1
20191013174314 60 7 2.0 6.0 0.00 0.00 0.00 76 1014.0
20191013173830 59 326 2.0 5.0 0.00 0.00 0.00 77 1014.0
20191013173326 59 333 3.0 6.0 0.00 0.00 0.00 77 1014.1
20191013172821 59 8 4.0 6.0 0.00 0.00 0.00 77 1014.1
20191013172316 59 326 2.0 5.0 0.00 0.00 0.00 76 1014.0
20191013171816 59 31 2.0 7.0 0.00 0.00 0.00 77 1013.9
20191013171331 59 355 3.0 5.0 0.00 0.00 0.00 76 1014.0
20191013170826 59 13 1.0 6.0 0.00 0.00 0.00 75 1014.1
20191013170322 60 360 3.0 6.0 0.00 0.00 0.00 76 1014.0
20191013165817 59 360 0.0 6.0 0.00 0.00 0.00 79 1014.1
20191013165332 59 26 2.0 6.0 0.00 0.00 0.00 77 1014.3
20191013164827 59 347 4.0 6.0 0.00 0.00 0.00 76 1014.2
20191013164342 59 332 3.0 7.0 0.00 0.00 0.00 78 1014.3
20191013163831 58 4 5.0 7.0 0.00 0.00 0.00 78 1014.3
20191013163326 58 8 4.0 6.0 0.00 0.00 0.00 79 1014.3
20191013162821 58 321 3.0 6.0 0.00 0.00 0.00 80 1014.4
20191013162317 57 350 3.0 6.0 0.00 0.00 0.00 80 1014.4
20191013161832 57 330 3.0 6.0 0.00 0.00 0.00 80 1014.4
20191013161328 57 24 3.0 8.0 0.00 0.00 0.00 79 1014.4
20191013160823 57 342 5.0 8.0 0.00 0.00 0.00 81 1014.4
20191013160324 57 323 4.0 8.0 0.00 0.00 0.00 80 1014.5
20191013155820 57 9 3.0 8.0 0.00 0.00 0.00 80 1014.5
20191013155314 57 308 4.0 8.0 0.00 0.00 0.00 82 1014.6
20191013154831 56 332 5.0 8.0 0.00 0.00 0.00 81 1014.5
20191013154325 57 27 5.0 8.0 0.00 0.00 0.00 81 1014.6
20191013153820 56 311 5.0 8.0 0.00 0.00 0.00 83 1014.8
20191013153315 57 25 4.0 10.0 0.00 0.00 0.00 82 1014.8
20191013152815 56 340 5.0 10.0 0.00 0.00 0.00 83 1014.9
20191013152330 55 333 4.0 9.0 0.00 0.00 0.00 84 1014.8
20191013151826 55 11 5.0 8.0 0.00 0.00 0.00 84 1014.8
20191013151320 55 320 3.0 6.0 0.00 0.00 0.00 85 1014.8
20191013150816 55 320 4.0 9.0 0.00 0.00 0.00 85 1014.8
20191013150333 55 338 4.0 9.0 0.00 0.00 0.00 85 1014.8
20191013145828 55 333 4.0 9.0 0.00 0.02 0.00 86 1014.7
20191013145324 54 307 4.0 7.0 0.00 0.02 0.00 86 1014.8
20191013144823 54 342 5.0 10.0 0.00 0.02 0.00 86 1014.8
20191013144318 54 25 5.0 10.0 0.00 0.02 0.00 85 1014.8
20191013143813 54 13 5.0 9.0 0.00 0.02 0.00 86 1014.7
20191013143328 54 29 2.0 7.0 0.00 0.02 0.00 86 1014.8
20191013142823 54 341 4.0 8.0 0.00 0.02 0.00 86 1014.7
20191013142318 54 342 4.0 8.0 0.00 0.02 0.00 86 1014.8
20191013141814 54 335 5.0 8.0 0.00 0.02 0.00 87 1014.8
20191013141313 53 330 1.0 6.0 0.00 0.02 0.00 87 1014.9
20191013140829 53 21 1.0 4.0 0.00 0.02 0.00 88 1014.9
20191013140325 53 326 2.0 7.0 0.00 0.02 0.00 87 1014.9
20191013135821 52 30 4.0 7.0 0.00 0.03 0.00 87 1014.8
20191013135336 52 2 2.0 7.0 0.00 0.03 0.00 87 1014.8
20191013134821 52 6 3.0 7.0 0.00 0.03 0.00 88 1014.8